![]() |
EMODnet Physics ERDDAP
Easier access to scientific data |
log in|
Brought to you by EMODnet Physics |
| Dataset Title: | NDBC - Collection of dew point temperature (DEWT) TimeSeries - IN SITU MultiPointTimeSeriesObservation
|
| Institution: | NDBC (Dataset ID: TS_DEWT_NDBC) |
| Information: | Summary
| License
| FGDC
| ISO 19115
| Metadata
| Background
| Subset
| Data Access Form
| Make a graph
|
| Name | Last modified | Size | Description | |
|---|---|---|---|---|
| Parent Directory | - | - | ||
| SANF1_TS_DEWT_012015.nc | 10-Dec-2024 19:24 | 479556 | ||
| SANF1_TS_DEWT_012016.nc | 10-Dec-2024 19:30 | 4872771 | ||
| SANF1_TS_DEWT_012017.nc | 10-Dec-2024 19:38 | 449140 | ||
| SANF1_TS_DEWT_012018.nc | 10-Dec-2024 19:40 | 449355 | ||
| SANF1_TS_DEWT_012019.nc | 20-Jan-2026 03:27 | 429625 | ||
| SANF1_TS_DEWT_012020.nc | 20-Jan-2026 03:33 | 450379 | ||
| SANF1_TS_DEWT_012021.nc | 20-Jan-2026 03:39 | 443873 | ||
| SANF1_TS_DEWT_012022.nc | 20-Jan-2026 03:50 | 629122 | ||
| SANF1_TS_DEWT_012024.nc | 20-Jan-2026 03:58 | 593041 | ||
| SANF1_TS_DEWT_012025.nc | 20-Jan-2026 04:05 | 627358 | ||
| SANF1_TS_DEWT_012026.nc | 02-Feb-2026 15:34 | 588206 | ||
| SANF1_TS_DEWT_022015.nc | 10-Dec-2024 19:25 | 612912 | ||
| SANF1_TS_DEWT_022016.nc | 10-Dec-2024 19:36 | 588215 | ||
| SANF1_TS_DEWT_022017.nc | 10-Dec-2024 19:38 | 628528 | ||
| SANF1_TS_DEWT_022018.nc | 10-Dec-2024 19:40 | 627974 | ||
| SANF1_TS_DEWT_022019.nc | 20-Jan-2026 03:27 | 628436 | ||
| SANF1_TS_DEWT_022020.nc | 20-Jan-2026 03:34 | 631193 | ||
| SANF1_TS_DEWT_022021.nc | 20-Jan-2026 03:40 | 629373 | ||
| SANF1_TS_DEWT_022022.nc | 20-Jan-2026 03:50 | 628093 | ||
| SANF1_TS_DEWT_022024.nc | 20-Jan-2026 03:58 | 588230 | ||
| SANF1_TS_DEWT_022025.nc | 20-Jan-2026 04:05 | 628216 | ||
| SANF1_TS_DEWT_022026.nc | 01-Mar-2026 17:12 | 629980 | ||
| SANF1_TS_DEWT_032015.nc | 10-Dec-2024 19:25 | 628121 | ||
| SANF1_TS_DEWT_032016.nc | 10-Dec-2024 19:36 | 627766 | ||
| SANF1_TS_DEWT_032017.nc | 10-Dec-2024 19:38 | 628236 | ||
| SANF1_TS_DEWT_032018.nc | 10-Dec-2024 19:41 | 4485826 | ||
| SANF1_TS_DEWT_032019.nc | 20-Jan-2026 03:27 | 450941 | ||
| SANF1_TS_DEWT_032021.nc | 20-Jan-2026 03:41 | 441895 | ||
| SANF1_TS_DEWT_032022.nc | 20-Jan-2026 03:51 | 446646 | ||
| SANF1_TS_DEWT_032024.nc | 20-Jan-2026 03:58 | 449944 | ||
| SANF1_TS_DEWT_032025.nc | 20-Jan-2026 04:06 | 450514 | ||
| SANF1_TS_DEWT_032026.nc | 24-Mar-2026 17:15 | 599572 | ||
| SANF1_TS_DEWT_042015.nc | 10-Dec-2024 19:26 | 629373 | ||
| SANF1_TS_DEWT_042016.nc | 10-Dec-2024 19:36 | 629689 | ||
| SANF1_TS_DEWT_042017.nc | 10-Dec-2024 19:39 | 588209 | ||
| SANF1_TS_DEWT_042019.nc | 20-Jan-2026 03:28 | 590800 | ||
| SANF1_TS_DEWT_042021.nc | 20-Jan-2026 03:42 | 588173 | ||
| SANF1_TS_DEWT_042022.nc | 20-Jan-2026 03:51 | 628543 | ||
| SANF1_TS_DEWT_042024.nc | 20-Jan-2026 03:59 | 628984 | ||
| SANF1_TS_DEWT_042025.nc | 20-Jan-2026 04:06 | 627897 | ||
| SANF1_TS_DEWT_052015.nc | 10-Dec-2024 19:26 | 629159 | ||
| SANF1_TS_DEWT_052016.nc | 10-Dec-2024 19:36 | 627847 | ||
| SANF1_TS_DEWT_052017.nc | 10-Dec-2024 19:39 | 614051 | ||
| SANF1_TS_DEWT_052018.nc | 20-Jan-2026 03:25 | 418795 | ||
| SANF1_TS_DEWT_052019.nc | 20-Jan-2026 03:28 | 628865 | ||
| SANF1_TS_DEWT_052021.nc | 20-Jan-2026 03:43 | 628808 | ||
| SANF1_TS_DEWT_052022.nc | 20-Jan-2026 03:52 | 628917 | ||
| SANF1_TS_DEWT_052024.nc | 20-Jan-2026 03:59 | 630344 | ||
| SANF1_TS_DEWT_052025.nc | 20-Jan-2026 04:07 | 627733 | ||
| SANF1_TS_DEWT_062014.nc | 10-Dec-2024 19:21 | 5272837 | ||
| SANF1_TS_DEWT_062015.nc | 10-Dec-2024 19:26 | 450499 | ||
| SANF1_TS_DEWT_062016.nc | 10-Dec-2024 19:36 | 429293 | ||
| SANF1_TS_DEWT_062017.nc | 10-Dec-2024 19:39 | 449349 | ||
| SANF1_TS_DEWT_062018.nc | 20-Jan-2026 03:25 | 449114 | ||
| SANF1_TS_DEWT_062019.nc | 20-Jan-2026 03:28 | 449277 | ||
| SANF1_TS_DEWT_062020.nc | 20-Jan-2026 03:35 | 468236 | ||
| SANF1_TS_DEWT_062021.nc | 20-Jan-2026 03:43 | 478482 | ||
| SANF1_TS_DEWT_062022.nc | 20-Jan-2026 03:53 | 462982 | ||
| SANF1_TS_DEWT_062024.nc | 20-Jan-2026 04:00 | 465425 | ||
| SANF1_TS_DEWT_062025.nc | 20-Jan-2026 04:07 | 460688 | ||
| SANF1_TS_DEWT_072015.nc | 10-Dec-2024 19:28 | 440148 | ||
| SANF1_TS_DEWT_072016.nc | 10-Dec-2024 19:37 | 480790 | ||
| SANF1_TS_DEWT_072017.nc | 10-Dec-2024 19:39 | 479994 | ||
| SANF1_TS_DEWT_072018.nc | 20-Jan-2026 03:26 | 479848 | ||
| SANF1_TS_DEWT_072019.nc | 20-Jan-2026 03:29 | 480195 | ||
| SANF1_TS_DEWT_072020.nc | 20-Jan-2026 03:35 | 481566 | ||
| SANF1_TS_DEWT_072021.nc | 20-Jan-2026 03:44 | 453696 | ||
| SANF1_TS_DEWT_072022.nc | 20-Jan-2026 03:53 | 440172 | ||
| SANF1_TS_DEWT_072023.nc | 20-Jan-2026 03:54 | 479670 | ||
| SANF1_TS_DEWT_072024.nc | 20-Jan-2026 04:01 | 479509 | ||
| SANF1_TS_DEWT_072025.nc | 20-Jan-2026 04:08 | 479364 | ||
| SANF1_TS_DEWT_082015.nc | 10-Dec-2024 19:29 | 479449 | ||
| SANF1_TS_DEWT_082016.nc | 10-Dec-2024 19:37 | 481189 | ||
| SANF1_TS_DEWT_082017.nc | 10-Dec-2024 19:39 | 4028229 | ||
| SANF1_TS_DEWT_082019.nc | 20-Jan-2026 03:30 | 450692 | ||
| SANF1_TS_DEWT_082020.nc | 20-Jan-2026 03:36 | 429624 | ||
| SANF1_TS_DEWT_082021.nc | 20-Jan-2026 03:45 | 450245 | ||
| SANF1_TS_DEWT_082022.nc | 20-Jan-2026 03:54 | 447924 | ||
| SANF1_TS_DEWT_082023.nc | 20-Jan-2026 03:55 | 450544 | ||
| SANF1_TS_DEWT_082024.nc | 20-Jan-2026 04:02 | 452034 | ||
| SANF1_TS_DEWT_082025.nc | 20-Jan-2026 04:09 | 629448 | ||
| SANF1_TS_DEWT_092015.nc | 10-Dec-2024 19:29 | 588217 | ||
| SANF1_TS_DEWT_092016.nc | 10-Dec-2024 19:37 | 630798 | ||
| SANF1_TS_DEWT_092017.nc | 10-Dec-2024 19:40 | 630864 | ||
| SANF1_TS_DEWT_092018.nc | 20-Jan-2026 03:26 | 588216 | ||
| SANF1_TS_DEWT_092019.nc | 20-Jan-2026 03:31 | 628752 | ||
| SANF1_TS_DEWT_092020.nc | 20-Jan-2026 03:36 | 630496 | ||
| SANF1_TS_DEWT_092021.nc | 20-Jan-2026 03:46 | 629547 | ||
| SANF1_TS_DEWT_092023.nc | 20-Jan-2026 03:55 | 627401 | ||
| SANF1_TS_DEWT_092024.nc | 20-Jan-2026 04:02 | 629034 | ||
| SANF1_TS_DEWT_092025.nc | 20-Jan-2026 04:09 | 621893 | ||
| SANF1_TS_DEWT_102014.nc | 10-Dec-2024 19:22 | 588188 | ||
| SANF1_TS_DEWT_102015.nc | 10-Dec-2024 19:29 | 630442 | ||
| SANF1_TS_DEWT_102016.nc | 10-Dec-2024 19:37 | 629068 | ||
| SANF1_TS_DEWT_102017.nc | 10-Dec-2024 19:40 | 630353 | ||
| SANF1_TS_DEWT_102018.nc | 20-Jan-2026 03:26 | 631946 | ||
| SANF1_TS_DEWT_102019.nc | 20-Jan-2026 03:32 | 629667 | ||
| SANF1_TS_DEWT_102020.nc | 20-Jan-2026 03:37 | 5139250 | ||
| SANF1_TS_DEWT_102021.nc | 20-Jan-2026 03:47 | 449247 | ||
| SANF1_TS_DEWT_102023.nc | 20-Jan-2026 03:56 | 429289 | ||
| SANF1_TS_DEWT_102024.nc | 20-Jan-2026 04:03 | 448896 | ||
| SANF1_TS_DEWT_102025.nc | 20-Jan-2026 04:10 | 449334 | ||
| SANF1_TS_DEWT_112014.nc | 10-Dec-2024 19:22 | 449818 | ||
| SANF1_TS_DEWT_112015.nc | 10-Dec-2024 19:30 | 439966 | ||
| SANF1_TS_DEWT_112016.nc | 10-Dec-2024 19:38 | 477030 | ||
| SANF1_TS_DEWT_112017.nc | 10-Dec-2024 19:40 | 440120 | ||
| SANF1_TS_DEWT_112018.nc | 20-Jan-2026 03:26 | 482139 | ||
| SANF1_TS_DEWT_112019.nc | 20-Jan-2026 03:32 | 480608 | ||
| SANF1_TS_DEWT_112020.nc | 20-Jan-2026 03:38 | 440157 | ||
| SANF1_TS_DEWT_112021.nc | 20-Jan-2026 03:48 | 479637 | ||
| SANF1_TS_DEWT_112023.nc | 20-Jan-2026 03:56 | 480761 | ||
| SANF1_TS_DEWT_112024.nc | 20-Jan-2026 04:03 | 482175 | ||
| SANF1_TS_DEWT_112025.nc | 20-Jan-2026 04:10 | 481224 | ||
| SANF1_TS_DEWT_122014.nc | 10-Dec-2024 19:24 | 479506 | ||
| SANF1_TS_DEWT_122015.nc | 10-Dec-2024 19:30 | 441492 | ||
| SANF1_TS_DEWT_122016.nc | 10-Dec-2024 19:38 | 440124 | ||
| SANF1_TS_DEWT_122017.nc | 10-Dec-2024 19:40 | 480322 | ||
| SANF1_TS_DEWT_122018.nc | 20-Jan-2026 03:27 | 480462 | ||
| SANF1_TS_DEWT_122019.nc | 20-Jan-2026 03:33 | 480327 | ||
| SANF1_TS_DEWT_122020.nc | 20-Jan-2026 03:38 | 480799 | ||
| SANF1_TS_DEWT_122021.nc | 20-Jan-2026 03:49 | 480493 | ||
| SANF1_TS_DEWT_122023.nc | 20-Jan-2026 03:57 | 5142104 | ||
| SANF1_TS_DEWT_122024.nc | 20-Jan-2026 04:04 | 451235 | ||
| SANF1_TS_DEWT_122025.nc | 20-Jan-2026 04:11 | 449810 | ||